Preview of NWS' New Version of Forecast
This preview is not operational and should not be used for support decisions.

Regional Weather Roundup (RWR)

Issued by National Weather Service (NWS)

                            
000
ASUS42 KTBW 170417
RWRFL 
FLORIDA REGIONAL WEATHER ROUNDUP
NATIONAL WEATHER SERVICE TAMPA BAY RUSKIN FL
1200 AM EDT WED JUL 17 2019

NOTE: "FAIR" INDICATES FEW OR NO CLOUDS BELOW 12,000 FEET WITH NO
SIGNIFICANT WEATHER AND/OR OBSTRUCTIONS TO VISIBILITY.

FLZ001>010-012>015-112-114-115-170500-
PANHANDLE FLORIDA
  
CITY           SKY/WX    TMP DP  RH WIND       PRES   REMARKS
PENSACOLA      FAIR      81  78  91 CALM      30.12R                  
PENSACOLA NAS  FAIR      77  76  96 CALM      30.12R                  
MILTON NAS     FAIR      77  74  90 SW3       30.12                   
CRESTVIEW      FAIR      77  72  84 CALM      30.14S                  
DUKE FIELD     FAIR      79  73  83 S3        30.12S                  
VALPARAISO     FAIR      82  74  75 W3        30.12R                  
MARY ESTHER    PTCLDY    83  75  76 CALM      30.11R                  
TRI COUNTY     FAIR      77  77 100 CALM      30.14S                  
PANAMA CITY    FAIR      78  75  90 CALM      30.12S                  
APALACHICOLA   FAIR      81  76  84 CALM      30.12R                  

STATION/POSITION SKY/WX   TEMP    WIND        PRES    WAVE   SWELL
                          AIR SEA DIR/SP/G            HT/PER HT/PER
                          (F)     (DEG/KT/KT) (MB)    (FT/S) (FT/S)
30.1N   87.6W              84 86  180/  6/  8 1020.0R   2/ 5   2/ 5
29.2N   88.2W              84 83  140/  6/  8 1020.2R   2/ 6   2/ 6
28.8N   86.0W              86 86  130/  6/  6 1019.8R   1/ 6   2/ 6
PANAMA CITY BEAC           85 87  240/  3/  4 1020.6R
TOWER C                    84      CALM  /  1 1020.4R
28.5N   84.5W              85     140/  2/  4 1020.3R   1/ 6   2/ 6

$$
FLZ011-016>038-118-127-128-134-139-239-170500-
NORTH FLORIDA
  
CITY           SKY/WX    TMP DP  RH WIND       PRES   REMARKS
MARIANNA       FAIR      80  76  87 SW5       30.13R                  
TALLAHASSEE    FAIR      82  77  84 CALM      30.14R                  
PERRY          FAIR      82  80  94 CALM      30.14S                  
LIVE OAK       PTCLDY    81  79  94 CALM      30.13S                  
CROSS CITY     FAIR      80  78  94 CALM      30.13S                  
LAKE CITY      FAIR      77  73  88 CALM      30.14S                  
GAINESVILLE    FAIR      77  75  93 CALM      30.16R                  
WILLISTON      FAIR      75  74  97 CALM      30.13F                  
PALATKA        MOCLDY    81  75  83 SW3       30.14R                  
MAYPORT NAS    FAIR      82  75  79 CALM      30.13R                  
JACKSONVILLE   FAIR      80  74  81 CALM      30.12R                  
JAX NAS        FAIR      83  73  72 W5        30.14R                  
JAX CECIL      CLOUDY    77  75  94 CALM      30.14R                  
FERNANDINA BEA MOCLDY    83  77  81 SW5       30.13R                  
ST AUGUSTINE   FAIR      81  74  79 SW3       30.14R                  
PALM COAST     FAIR      78  73  86 CALM      30.13S                  

STATION/POSITION SKY/WX   TEMP    WIND        PRES    WAVE   SWELL
                          AIR SEA DIR/SP/G            HT/PER HT/PER
                          (F)     (DEG/KT/KT) (MB)    (FT/S) (FT/S)
SHELL POINT      NOT AVBL
KEATON BEACH               87     290/  5/  6 1020.4R
CEDAR KEY                  85     120/  6/  7 1020.2R
FERNANDINA                 87 83  160/  4/  5 1020.8R
30.7N   81.3W                 83                N/A     2/11
MAYPORT                    83 81  220/  2/  3 1020.7R
31.4N   80.9W              84 85  230/  8/  8 1020.0R   1/10   2/10
ST AUGUSTINE               82 77  210/  6/  7 1020.5R

$$
FLZ040-043>046-052-053-057-058-063-144-170500-
INTERIOR CENTRAL FLORIDA
  
CITY           SKY/WX    TMP DP  RH WIND       PRES   REMARKS
OCALA          FAIR      78  72  81 CALM      30.14F                  
LEESBURG       FAIR      78  72  81 CALM      30.14S                  
SANFORD        FAIR      82  75  79 SE6       30.13S                  
ORLANDO EXEC   FAIR      82  74  76 SE7       30.14R                  
ORLANDO INTL   FAIR      79  75  87 SE5       30.14S                  
KISSIMMEE      FAIR      81  76  84 SE3       30.15S                  
WINTER HAVEN   FAIR      80  70  71 SW3       30.15S                  
LAKELAND       FAIR      77  72  83 SE3       30.14F                  
BARTOW         FAIR      77  73  88 CALM      30.13F                  
SEBRING        FAIR      79  75  89 CALM      30.14S                  
OKEECHOBEE     FAIR      77  73  88 CALM      30.13F                  

$$
FLZ041-047-054-059-064-141-147-170500-
EAST CENTRAL FLORIDA
  
CITY           SKY/WX    TMP DP  RH WIND       PRES   REMARKS
DAYTONA BEACH  FAIR      81  78  91 S3        30.13R                  
DELAND         FAIR      81  73  78 S3        30.13S                  
JFK SPACE CTR  CLEAR     82  68  63 S5        30.13R                  
CAPE CANAVERAL CLEAR     82  56  40 S8        30.12R                  
MELBOURNE      FAIR      84  77  79 S6        30.13S                  
VERO BEACH     FAIR      82  75  79 S3        30.14S                  
FT PIERCE      FAIR      77  73  87 CALM      30.14S                  
STUART         FAIR      81  73  78 S3        30.15S                  

STATION/POSITION SKY/WX   TEMP    WIND        PRES    WAVE   SWELL
                          AIR SEA DIR/SP/G            HT/PER HT/PER
                          (F)     (DEG/KT/KT) (MB)    (FT/S) (FT/S)
28.5N   80.2W              84 83  160/  8/ 10 1020.3R   1/10   2/10
28.9N   78.5W              85 86  160/  6/  8   N/A     2/ 8   2/ 8
TRIDENT PIER               83 84  150/  7/  8 1021.8R
28.4N   80.5W                 83                N/A     1/11
27.5N   80.2W                 83                N/A     1/10

$$
FLZ050-056-061-142-242-148-248-149-249-151-251-155-255-
160-260-170500-
WEST CENTRAL FLORIDA
  
CITY           SKY/WX    TMP DP  RH WIND       PRES   REMARKS
CRYSTAL RIVER  FAIR      77  73  88 CALM      30.13S                  
INVERNESS      FAIR      75  75 100 CALM      30.14R FOG              
BROOKSVILLE    FAIR      75  73  93 CALM      30.14R                  
CLEARWATER AIR FAIR      77  72  83 E5        30.13R                  
ST PETE CLEARW FAIR      78  73  84 S3        30.13R                  
TAMPA INTL     MOCLDY    78  74  87 CALM      30.14R                  
TAMPA EXEC     FAIR      75  73  94 CALM      30.14S                  
PLANT CITY     FAIR     N/A N/A N/A MISG      30.16S                  
MACDILL AFB    FAIR      77  71  81 SE3       30.13R                  
PETER O KNIGHT CLOUDY    79  77  94 NE6       30.14R                  
ST PETERSBURG  FAIR      81  75  82 CALM      30.11S                  
SARASOTA       FAIR      78  74  87 E3        30.11S                  
VENICE         FAIR      79  75  89 E3        30.13S                  

STATION/POSITION SKY/WX   TEMP    WIND        PRES    WAVE   SWELL
                          AIR SEA DIR/SP/G            HT/PER HT/PER
                          (F)     (DEG/KT/KT) (MB)    (FT/S) (FT/S)
27.3N   84.2W                 86                N/A     1/ 5
CLEARWATER BEACH           81 90   80/  4/  5 1020.3R
MIDDLE TAMPA BAY           81     150/  6/  9 1020.0F
VENICE                     78 85   80/  6/  7 1019.9F

$$
FLZ066-069-070-075>078-162-262-165-265-170500-
SOUTHWEST FLORIDA AND KEYS
  
CITY           SKY/WX    TMP DP  RH WIND       PRES   REMARKS
PUNTA GORDA    FAIR      77  74  90 CALM      30.14S                  
FT MYERS       FAIR      78  75  90 SW3       30.13R                  
SOUTHWEST INTL FAIR      78  74  87 S3        30.14R                  
MARCO ISLAND   FAIR      78  77  96 MISG      30.14S                  
IMMOKALEE      FAIR      79  77  94 CALM      30.12R                  
MARATHON       FAIR      85  73  67 E10       30.10S                  
KEY WEST NAS   FAIR      86  74  67 E12       30.10S                  
KEY WEST INTL  FAIR      84  75  74 E10       30.10S                  

STATION/POSITION SKY/WX   TEMP    WIND        PRES    WAVE   SWELL
                          AIR SEA DIR/SP/G            HT/PER HT/PER
                          (F)     (DEG/KT/KT) (MB)    (FT/S) (FT/S)
NAPLES                     80 88              1020.2R
26.0N   85.6W              85 85   90/ 10/ 10 1019.6R   2/ 5   2/ 5
DRY TORTUGAS               85      90/ 10/ 11 1019.5R
SAND KEY                   85     100/ 14/ 16 1018.2
SOMBRERO KEY               85      90/ 12/ 15 1019.4
LONG KEY                   86                 1018.6

$$
FLZ067-068-071>074-168-172>174-170500-
SOUTHEAST FLORIDA 
  
CITY           SKY/WX    TMP DP  RH WIND       PRES   REMARKS
W PALM BEACH   FAIR      83  71  67 SE5       30.14S                  
FT LAUDER-EXEC FAIR      83  74  74 E7        30.13S                  
FT LAUDERDALE  FAIR      84  74  71 E10       30.12F                  
POMPANO BEACH  FAIR      85  75  72 E8        30.13S                  
PEMBROKE PINES FAIR      84  74  71 E5        30.14S                  
OPA LOCKA      FAIR      84  75  74 E5        30.14R                  
MIAMI          FAIR      85  73  67 E7        30.13S                  
WEST KENDALL   FAIR      81  75  82 E6        30.12S                  
HOMESTEAD      FAIR      83  76  80 E7        30.11F                  

STATION/POSITION SKY/WX   TEMP    WIND        PRES    WAVE   SWELL
                          AIR SEA DIR/SP/G            HT/PER HT/PER
                          (F)     (DEG/KT/KT) (MB)    (FT/S) (FT/S)
PORT EVERGLADES            85      90/  6/  9 1020.3F
VIRGINIA KEY               85 88   80/ 10/ 12 1019.7F
LAKE WORTH                 84 86  140/  7/  9 1021.7S
FOWEY ROCKS                85 85   90/ 12/ 13 1020.3F
SETTLEMENT POINT           82     160/  4/  5 1020.9R

$$